Weather History for GMMX - August, 2012

Change the Weather History Date:

Friday, August 3, 2012

  Actual Average Record
Temperature  
Mean Temperature 98 °F -  
Max Temperature 118 °F 93 °F - ()
Min Temperature 78 °F 67 °F - ()
Cooling Degree Days 33    
Growing Degree Days 48 (Base 50)    
Moisture  
Dew Point 52 °F    
Average Humidity 24    
Maximum Humidity 47    
Minimum Humidity 4    
Precipitation  
Precipitation 0.00 in 0.00 in - ()
Sea Level Pressure  
Sea Level Pressure 29.99 in    
Wind  
Wind Speed 6 mph ()    
Max Wind Speed 20 mph    
Max Gust Speed -    
Visibility 4.8 miles    
Events      
T = Trace of Precipitation, MM = Missing Value Source: Averaged Metar Reports

Daily Weather History Graph

Daily Weather History Graph

Search for Another Location

Airport or City:

Trip Planner

Search our weather history database for the weather conditions in past years. The results will help you decide how hot, cold, wet, or windy it might be!

Date:

Astronomy

Aug. 03, 2012 Rise Set
Actual Time 5:49 AM WET 7:26 PM WET
Civil Twilight 5:23 AM WET 7:52 PM WET
Nautical Twilight 4:51 AM WET 8:24 PM WET
Astronomical Twilight 4:18 AM WET 8:57 PM WET
Moon 8:09 PM WET (8/3) 7:08 AM WET (8/3)
Length of Visible Light 14h 29m
Length of Day
13h 36m
Full, 98% of the Moon is Illuminated
Aug 3
Full
Aug 9
Last Quarter
Aug 17
New
Aug 24
First Quarter
Aug 31
Full

Hourly Weather History & Observations

Time (WET) Temp. Heat Index Dew Point Humidity Pressure Visibility Wind Dir Wind Speed Gust Speed Precip Events Conditions
12:00 AM 89.6 °F 87.7 °F 55.4 °F 31% 30.04 in 3.1 mi WSW 8.1 mph - N/A   Mostly Cloudy
12:30 AM 87.8 °F 86.5 °F 57.2 °F 35% 30.01 in 3.1 mi West 3.5 mph - N/A   Mostly Cloudy
1:00 AM 86.0 °F 84.9 °F 57.2 °F 37% 30.04 in 3.1 mi West 6.9 mph - N/A   Mostly Cloudy
1:30 AM 84.2 °F 83.5 °F 57.2 °F 40% 30.01 in 3.1 mi West 4.6 mph - N/A   Mostly Cloudy
2:00 AM 82.4 °F 82.0 °F 57.2 °F 42% 30.01 in 3.1 mi West 3.5 mph - N/A   Mostly Cloudy
2:30 AM 80.6 °F 80.8 °F 57.2 °F 45% 30.01 in - WSW 5.8 mph - N/A   Mostly Cloudy
3:00 AM 82 °F - 57 °F 31% 29.91 in 3 mi SSW 2.3 mph - -   Mostly Cloudy
3:00 AM 82.4 °F 82.0 °F 57.2 °F 42% 30.01 in - Variable 2.3 mph - N/A   Mostly Cloudy
3:30 AM 82.4 °F 81.7 °F 55.4 °F 39% 29.98 in - Variable 1.2 mph - N/A   Mostly Cloudy
4:00 AM 82.4 °F 81.7 °F 55.4 °F 39% 29.98 in - ENE 3.5 mph - N/A   Mostly Cloudy
4:30 AM 82.4 °F 82.0 °F 57.2 °F 42% 29.98 in - Variable 2.3 mph - N/A   Mostly Cloudy
5:00 AM 82.4 °F 82.0 °F 57.2 °F 42% 29.98 in - North 3.5 mph - N/A   Mostly Cloudy
5:30 AM 82.4 °F 82.0 °F 57.2 °F 42% 29.98 in 3.1 mi NNE 3.5 mph - N/A   Mostly Cloudy
5:45 AM 79 °F - 58 °F 38% 29.91 in 3 mi WSW 4.6 mph - -   Mostly Cloudy
6:00 AM 78.8 °F - 57.2 °F 47% 29.98 in 3.1 mi WSW 4.6 mph - N/A   Mostly Cloudy
6:30 AM 82.4 °F 82.0 °F 57.2 °F 42% 30.01 in 3.1 mi ESE 4.6 mph - N/A   Mostly Cloudy
7:00 AM 82.4 °F 82.0 °F 57.2 °F 42% 30.01 in 3.1 mi ENE 5.8 mph - N/A   Mostly Cloudy
7:30 AM 86.0 °F 85.4 °F 59.0 °F 40% 30.01 in 3.1 mi Variable 2.3 mph - N/A   Mostly Cloudy
8:00 AM 86.0 °F 85.4 °F 59.0 °F 40% 30.01 in 3.1 mi West 6.9 mph - N/A   Mostly Cloudy
8:30 AM 89.6 °F 88.9 °F 59.0 °F 36% 30.04 in - West 8.1 mph - N/A   Mostly Cloudy
8:46 AM 92 °F - 59 °F 23% 29.91 in 4 mi WSW 4.6 mph - -   Scattered Clouds
9:00 AM 91.4 °F 90.7 °F 59.0 °F 34% 30.04 in 3.7 mi WSW 4.6 mph - N/A   Mostly Cloudy
9:30 AM 98.6 °F 98.5 °F 59.0 °F 27% 30.01 in 3.7 mi Variable 2.3 mph - N/A   Scattered Clouds
10:00 AM 100.4 °F 98.8 °F 55.4 °F 22% 30.01 in 3.7 mi East 3.5 mph - N/A   Scattered Clouds
10:30 AM 102.2 °F 100.4 °F 53.6 °F 20% 30.01 in 3.7 mi ESE 3.5 mph - N/A   Scattered Clouds
11:00 AM 107.6 °F 106.8 °F 55.4 °F 18% 30.01 in 3.7 mi North 4.6 mph - N/A   Scattered Clouds
11:30 AM 109.4 °F 107.9 °F 53.6 °F 16% 30.01 in 3.7 mi NNW 4.6 mph - N/A   Scattered Clouds
11:45 AM 112 °F - 53 °F 8% 29.84 in 4 mi North 4.6 mph - -   Partly Cloudy
12:00 PM 111.2 °F 109.6 °F 53.6 °F 15% 30.01 in 3.7 mi North 4.6 mph - N/A   Scattered Clouds
12:30 PM 113.0 °F 111.1 °F 53.6 °F 14% 30.01 in 6.2 mi NNW 5.8 mph - N/A   Scattered Clouds
1:00 PM 114.8 °F - 46.4 °F 10% 29.98 in 6.2 mi NNW 6.9 mph - N/A   Scattered Clouds
1:30 PM 113.0 °F - 46.4 °F 11% 29.98 in 6.2 mi West 6.9 mph - N/A   Scattered Clouds
2:30 PM 116.6 °F - 42.8 °F 9% 29.98 in 6.2 mi West 6.9 mph - N/A   Scattered Clouds
3:00 PM 117 °F - 44 °F 4% 29.79 in 6 mi West 18.4 mph - -   Partly Cloudy
3:00 PM 116.6 °F - 41.0 °F 8% 29.98 in 6.2 mi West 19.6 mph - N/A   Scattered Clouds
3:30 PM 118.4 °F - 46.4 °F 9% 29.95 in 6.2 mi West 12.7 mph - N/A   Scattered Clouds
4:00 PM 114.8 °F - 42.8 °F 9% 29.95 in 6.2 mi WSW 11.5 mph - N/A   Scattered Clouds
4:30 PM 113.0 °F - 46.4 °F 11% 29.98 in 6.2 mi WNW 17.3 mph - N/A   Scattered Clouds
5:00 PM 111.2 °F - 46.4 °F 12% 29.98 in 6.2 mi NW 12.7 mph - N/A   Scattered Clouds
5:30 PM 109.4 °F - 48.2 °F 13% 29.98 in 6.2 mi NNW 13.8 mph - N/A   Scattered Clouds
6:00 PM 109 °F - 45 °F 6% 29.83 in 6 mi WNW 16.1 mph - -   Partly Cloudy
6:00 PM 109.4 °F - 44.6 °F 11% 29.98 in 6.2 mi WNW 16.1 mph - N/A   Scattered Clouds
6:30 PM 107.6 °F - 48.2 °F 14% 30.01 in 6.2 mi NW 9.2 mph - N/A   Scattered Clouds
7:00 PM 105.8 °F - 48.2 °F 14% 30.04 in 6.2 mi ENE 8.1 mph - N/A   Scattered Clouds
7:30 PM 104.0 °F - 46.4 °F 14% 30.04 in 6.2 mi SE 11.5 mph - N/A   Scattered Clouds
8:00 PM 102.2 °F - 46.4 °F 15% 30.04 in 6.2 mi SE 4.6 mph - N/A   Scattered Clouds
8:30 PM 100.4 °F - 46.4 °F 16% 30.04 in 5.0 mi South 13.8 mph - N/A   Scattered Clouds
9:00 PM 100 °F - 43 °F 7% 29.91 in 6 mi South 16.1 mph - -   Partly Cloudy
9:00 PM 100.4 °F - 42.8 °F 14% 30.04 in 6.2 mi South 17.3 mph - N/A   Scattered Clouds
9:30 PM 100.4 °F - 42.8 °F 14% 30.04 in 6.2 mi South 10.4 mph - N/A   Scattered Clouds
10:00 PM 100.4 °F - 42.8 °F 14% 30.04 in 6.2 mi South 8.1 mph - N/A   Scattered Clouds
10:30 PM 98.6 °F - 46.4 °F 17% 30.04 in 6.2 mi North 4.6 mph - N/A   Scattered Clouds
11:00 PM 95.0 °F - 46.4 °F 19% 30.04 in 6.2 mi WNW 3.5 mph - N/A   Scattered Clouds
11:30 PM 91.4 °F - 48.2 °F 23% 30.04 in - WSW 3.5 mph - N/A   Clear